Back to catalog

STARLINK-5839

AliveCommunicationsVLEO
NORAD 57051·PAYLOAD·🇺🇸 United States

Launched Jun 22, 2023 from Vandenberg Space Force Base

Loading…

Next Passes (next 24 hours)

TLE

FreshSource: CelesTrak SupGP

Epoch: Sep 14, 2026, 21:27 UTC

1 57051C 23088D   26257.89423611 -.00008091  00000+0 -29310-3 0  2579
2 57051  42.9990 121.8983 0001660 241.1193  46.2672 15.27575319    12

Track STARLINK-5839 in real time with AllMySat

Download on the App Store